Wind_Speed
45 43 39 35 34 32 33 34 34 30 25 25 26 27 27 26 22 20 18 22 21 22 21 21 22 23 27 30 29 29 28 25 29 34 43 45 32 31
47 47 44 39 37 35 32 32 36 34 29 27 28 30 30 28 24 24 21 23 23 22 23 23 24 26 27 29 31 29 28 25 29 33 37 31 36 34
50 51 46 44 41 37 36 34 35 37 33 29 31 32 31 29 27 27 25 25 26 26 26 26 28 32 33 32 33 32 30 29 28 30 32 32 34 35
51 53 49 47 45 42 40 37 37 37 37 32 34 33 32 30 28 29 28 27 28 30 29 30 34 37 36 35 34 34 35 34 34 34 35 34 36 38
52 55 52 51 49 47 45 42 39 41 41 38 36 34 33 33 31 32 31 27 28 32 32 31 35 27 31 32 32 32 34 37 37 36 34 33 32 35
57 55 54 55 51 47 48 45 43 44 44 42 40 37 36 36 35 33 30 30 31 34 35 31 25 26 27 27 29 29 35 37 37 38 39 37 37 34
59 59 57 57 53 51 51 49 46 46 45 44 42 38 34 36 35 35 35 33 34 33 34 32 26 26 30 29 27 31 35 38 39 38 39 40 40 38
63 62 60 59 57 56 53 53 50 49 48 45 43 39 34 36 40 39 37 39 38 36 37 34 27 29 30 32 34 31 34 31 33 39 41 42 42 41
71 66 63 61 60 59 58 58 57 53 50 49 47 42 41 38 42 45 42 42 42 39 43 31 32 32 34 34 38 43 36 37 41 44 44 42 44 46
79 75 70 68 66 64 62 63 61 56 55 55 51 48 48 47 48 50 49 49 45 40 37 35 33 36 36 37 39 41 42 41 44 47 51 48 44 47
78 87 77 74 72 70 68 68 64 63 61 59 57 54 55 53 51 50 48 46 46 41 38 37 39 40 38 39 42 42 42 46 49 50 52 47 49 51
92 91 74 81 76 73 72 71 70 66 63 61 61 60 58 58 55 50 49 47 47 46 42 44 44 43 45 42 43 46 47 50 50 52 53 55 56 60
90 90 75 65 83 78 78 78 74 69 69 66 65 65 65 62 60 54 53 51 51 51 48 48 47 47 49 50 50 50 51 54 54 55 57 57 58 63
75 77 64 70 77 67 83 80 76 74 74 74 70 69 66 64 61 60 58 56 55 54 51 51 50 51 54 57 56 55 55 56 57 56 59 60 61 65
49 53 55 68 75 77 86 80 77 75 62 65 69 69 69 69 68 68 63 60 59 56 54 54 52 55 58 60 61 61 60 58 57 57 60 64 66 69
67 69 68 43 55 72 61 66 82 89 88 79 77 77 77 73 74 69 66 64 62 60 58 58 58 58 59 63 65 61 62 59 58 57 63 67 72 77
82 85 68 56 64 45 65 73 78 78 79 67 78 80 82 71 75 77 72 66 65 64 61 64 65 61 60 63 67 65 66 63 60 63 68 71 77 80
89 85 80 77 77 78 72 59 80 67 67 71 68 65 73 85 71 76 75 68 65 68 67 66 67 66 65 67 67 68 68 67 66 68 71 75 74 67
87 84 86 90 88 81 79 91 73 70 74 74 77 80 69 72 63 67 79 80 74 70 69 67 62 64 66 68 71 72 71 70 69 73 77 73 68 60
90 86 84 83 86 84 83 84 81 75 67 70 78 60 60 67 71 62 61 68 72 75 69 66 68 69 70 72 74 72 73 72 76 76 79 77 77 79
88 86 85 86 85 84 80 80 81 79 80 87 84 83 75 71 77 80 70 60 63 67 72 71 74 77 77 77 76 76 77 79 81 85 84 81 79 78
70 82 83 86 86 86 86 84 86 88 89 87 80 78 76 73 73 71 73 69 73 76 75 76 77 78 80 80 83 83 80 80 78 77 77 76 71 71
58 62 75 82 83 83 83 82 83 84 85 80 76 73 72 71 71 70 70 71 72 73 74 75 78 78 80 78 76 71 69 69 72 75 73 71 73 75
Wind_Direction
251 249 246 240 240 244 243 247 247 244 244 248 254 263 265 269 274 274 270 275 287 296 297 300 309 316 322 325 323 323 324 301 299 303 308 310 298 300
247 251 249 246 241 243 245 244 250 249 242 243 250 253 262 268 270 271 272 271 284 291 291 300 309 312 317 319 321 318 321 316 315 315 322 319 315 308
244 249 251 251 245 243 243 242 245 248 247 236 243 251 255 261 264 268 272 271 279 284 288 298 304 309 310 312 315 315 313 319 318 322 322 323 320 314
241 245 249 251 249 246 245 242 241 243 245 235 238 246 254 258 260 263 265 267 273 279 288 296 304 301 303 300 308 312 312 313 315 321 321 327 326 319
236 240 243 245 244 245 244 243 240 239 241 237 236 240 251 259 260 260 262 263 268 276 284 292 302 307 309 302 298 307 317 314 314 317 322 321 320 324
236 240 241 244 244 243 245 244 241 236 236 237 237 238 247 254 258 258 255 255 261 274 283 292 312 324 327 326 306 310 315 317 317 317 318 319 322 322
237 240 240 241 243 243 243 244 242 239 236 234 237 241 245 248 250 249 248 256 261 271 282 292 308 314 312 316 320 324 313 305 306 316 321 322 321 318
234 237 241 239 239 241 241 241 240 239 238 236 237 243 248 245 242 244 247 252 258 267 274 286 298 299 304 308 310 306 317 326 321 318 316 315 316 318
235 233 236 238 236 236 238 239 238 237 237 237 239 242 247 247 240 241 249 259 261 267 273 287 288 296 299 306 306 311 317 318 319 319 322 320 320 314
237 235 233 233 234 233 234 236 236 238 236 238 239 240 243 242 240 246 250 257 266 266 274 279 283 289 294 303 307 310 318 324 317 324 324 319 319 321
236 234 238 232 228 234 231 233 235 236 239 241 243 242 241 242 244 248 253 257 264 267 272 279 284 288 295 299 304 309 311 315 314 317 323 318 320 318
229 238 232 234 232 232 232 232 234 236 239 241 244 245 247 245 243 249 253 259 266 269 274 277 279 287 292 297 301 302 304 307 310 314 319 314 317 322
247 244 248 251 230 230 229 232 235 236 236 240 243 244 247 247 247 247 252 256 261 266 270 276 282 287 289 293 295 299 303 305 307 311 311 313 311 313
249 247 244 226 233 230 229 230 233 235 235 234 238 244 248 250 250 247 248 253 257 263 268 273 277 283 286 290 295 299 300 302 307 309 310 310 311 309
226 237 239 241 240 240 237 230 232 235 234 241 235 241 247 249 248 248 248 254 257 260 265 269 274 279 284 288 291 294 298 302 305 306 308 309 308 307
244 235 242 254 253 251 232 241 234 238 238 243 241 239 241 243 244 246 248 254 255 259 263 268 271 275 280 286 289 295 298 301 303 303 304 306 307 310
258 255 248 240 244 254 253 252 238 241 240 257 251 248 242 253 240 244 243 247 254 258 262 266 269 273 278 284 288 292 296 298 298 299 303 306 311 306
248 247 249 249 251 253 250 253 239 253 246 251 259 263 257 252 262 244 244 249 250 255 260 268 272 275 278 282 286 290 293 295 296 300 302 304 306 297
247 250 249 248 249 250 252 251 260 260 258 260 260 259 266 240 254 264 251 251 257 253 259 264 271 275 279 282 286 286 290 292 296 296 299 299 300 290
247 248 251 253 255 254 252 250 256 262 258 249 253 259 270 249 264 260 262 268 262 260 261 267 272 276 281 281 283 286 288 291 295 296 297 297 295 294
250 250 251 253 255 256 258 257 260 261 261 263 269 274 276 277 279 281 276 272 256 263 273 274 272 273 277 281 284 286 288 291 293 294 295 292 293 295
254 254 251 251 253 256 257 257 259 260 261 264 267 268 269 269 268 269 271 268 265 268 270 271 273 275 277 280 283 286 288 290 293 293 289 290 288 287
258 258 259 257 255 257 260 259 259 259 261 263 264 267 267 269 271 271 271 272 272 271 271 272 273 275 278 282 286 290 291 291 292 288 287 282 283 283
Height
5833 5834 5836 5839 5840 5842 5844 5845 5846 5848 5850 5850 5848 5847 5847 5847 5846 5845 5845 5843 5842 5840 5838 5835 5832 5829 5826 5821 5817 5813 5809 5805 5802 5799 5795 5789 5785 5783
5823 5824 5827 5830 5831 5833 5836 5837 5838 5840 5842 5843 5842 5840 5839 5840 5840 5839 5839 5838 5837 5836 5833 5830 5827 5823 5820 5816 5812 5808 5804 5800 5796 5792 5788 5782 5780 5776
5811 5814 5818 5821 5822 5824 5826 5828 5830 5831 5834 5837 5835 5834 5832 5833 5833 5833 5833 5832 5831 5829 5827 5825 5822 5818 5815 5811 5806 5802 5799 5794 5790 5786 5781 5777 5774 5770
5799 5801 5807 5810 5812 5815 5817 5820 5821 5822 5823 5828 5826 5827 5826 5825 5826 5825 5825 5825 5824 5822 5821 5819 5816 5812 5808 5804 5800 5797 5793 5789 5785 5780 5774 5770 5767 5763
5784 5786 5794 5795 5798 5802 5805 5808 5810 5811 5812 5815 5818 5819 5819 5818 5819 5818 5818 5818 5817 5814 5813 5813 5809 5805 5801 5796 5793 5791 5787 5782 5779 5774 5770 5766 5762 5758
5770 5774 5781 5783 5788 5792 5794 5797 5798 5798 5800 5804 5806 5809 5810 5810 5810 5811 5811 5810 5807 5807 5805 5804 5802 5798 5794 5790 5787 5785 5781 5777 5774 5769 5765 5761 5757 5752
5755 5761 5765 5770 5777 5781 5781 5786 5787 5788 5788 5791 5794 5797 5799 5800 5802 5802 5799 5801 5800 5799 5798 5797 5793 5790 5787 5784 5781 5778 5775 5770 5767 5763 5758 5754 5750 5746
5739 5747 5753 5757 5762 5765 5768 5772 5775 5776 5777 5780 5784 5785 5789 5790 5790 5791 5790 5789 5791 5792 5788 5789 5785 5782 5779 5777 5774 5770 5767 5763 5759 5756 5751 5747 5742 5738
5721 5730 5735 5741 5746 5751 5754 5757 5758 5763 5767 5768 5770 5775 5776 5781 5779 5778 5780 5781 5779 5781 5778 5777 5777 5773 5770 5768 5767 5763 5759 5755 5752 5748 5743 5739 5734 5728
5704 5709 5715 5723 5729 5734 5738 5741 5742 5748 5752 5754 5757 5763 5763 5765 5766 5766 5767 5768 5770 5770 5767 5767 5768 5764 5761 5760 5757 5754 5749 5746 5742 5739 5735 5730 5725 5720
5688 5690 5696 5701 5709 5716 5719 5724 5728 5730 5736 5740 5742 5744 5746 5750 5751 5752 5754 5755 5755 5758 5756 5754 5755 5752 5751 5749 5746 5743 5739 5736 5732 5729 5726 5720 5716 5711
5669 5666 5673 5680 5691 5696 5703 5708 5710 5717 5721 5725 5726 5726 5729 5732 5735 5739 5741 5742 5742 5741 5745 5740 5741 5741 5737 5738 5734 5733 5730 5726 5721 5717 5714 5710 5704 5701
5645 5651 5653 5642 5672 5676 5684 5689 5693 5702 5704 5706 5707 5709 5711 5716 5722 5727 5728 5729 5728 5729 5730 5727 5727 5727 5725 5722 5723 5722 5718 5714 5712 5706 5700 5697 5691 5686
5626 5632 5637 5645 5653 5661 5662 5669 5675 5678 5679 5683 5688 5692 5698 5702 5707 5709 5711 5714 5714 5715 5715 5714 5712 5713 5712 5709 5708 5708 5704 5701 5697 5693 5687 5682 5677 5672
5603 5611 5619 5628 5635 5638 5637 5648 5653 5660 5663 5652 5671 5678 5682 5686 5686 5689 5693 5698 5699 5700 5701 5700 5699 5698 5697 5696 5694 5691 5689 5687 5683 5679 5673 5667 5661 5656
5585 5591 5597 5603 5610 5609 5611 5624 5635 5641 5645 5647 5652 5656 5659 5661 5664 5669 5674 5678 5681 5683 5686 5687 5686 5684 5681 5680 5680 5677 5675 5670 5667 5662 5657 5652 5646 5639
5570 5572 5581 5590 5596 5601 5609 5614 5617 5623 5628 5633 5634 5634 5637 5630 5641 5646 5652 5657 5661 5666 5668 5670 5669 5668 5666 5664 5664 5662 5658 5654 5648 5645 5641 5636 5631 5626
5554 5560 5565 5569 5578 5586 5592 5594 5602 5607 5613 5616 5620 5621 5622 5619 5624 5630 5634 5637 5642 5647 5650 5653 5651 5649 5649 5648 5649 5644 5639 5636 5632 5628 5624 5620 5614 5611
5534 5541 5545 5550 5559 5567 5573 5579 5582 5587 5594 5597 5603 5603 5605 5610 5610 5615 5618 5623 5627 5628 5630 5632 5632 5631 5630 5629 5630 5623 5621 5619 5615 5610 5606 5601 5599 5597
5514 5520 5526 5529 5536 5543 5552 5558 5562 5569 5573 5577 5582 5583 5588 5590 5596 5601 5603 5607 5609 5613 5613 5614 5615 5613 5611 5607 5606 5608 5604 5601 5596 5590 5585 5582 5580 5577
5491 5499 5505 5511 5516 5524 5530 5536 5540 5545 5552 5558 5561 5563 5568 5571 5577 5579 5583 5585 5587 5589 5593 5595 5595 5591 5588 5587 5586 5586 5584 5580 5573 5569 5565 5560 5556 5553
5468 5474 5484 5492 5496 5501 5507 5514 5520 5526 5532 5538 5542 5546 5551 5555 5560 5561 5564 5568 5571 5571 5572 5573 5574 5572 5569 5568 5565 5564 5562 5555 5551 5547 5544 5539 5535 5533
5451 5455 5460 5467 5474 5481 5486 5492 5498 5504 5511 5517 5522 5526 5530 5533 5536 5540 5542 5544 5546 5547 5548 5550 5550 5550 5548 5546 5543 5540 5534 5531 5528 5525 5523 5519 5516 5513